TimeMDT,TemperatureF,Dew PointF,Humidity,Sea Level PressureIn,VisibilityMPH,Wind Direction,Wind SpeedMPH,Gust SpeedMPH,PrecipitationIn,Events,Conditions,WindDirDegrees,DateUTC
12:53 AM,17.1,8.1,68,30.42,10.0,NNE,4.6,-,N/A,,Clear,20,2013-03-24 06:53:00
1:53 AM,16.0,8.1,71,30.42,10.0,ENE,4.6,-,N/A,,Clear,70,2013-03-24 07:53:00
2:53 AM,15.1,7.0,70,30.41,10.0,ENE,5.8,-,N/A,,Clear,70,2013-03-24 08:53:00
3:53 AM,14.0,6.1,71,30.41,10.0,Calm,Calm,-,N/A,,Partly Cloudy,0,2013-03-24 09:53:00
4:53 AM,10.9,6.1,81,30.42,10.0,SW,3.5,-,N/A,,Clear,230,2013-03-24 10:53:00
5:53 AM,9.0,3.9,80,30.44,10.0,Calm,Calm,-,N/A,,Clear,0,2013-03-24 11:53:00
6:53 AM,12.0,5.0,73,30.45,10.0,Calm,Calm,-,N/A,,Clear,0,2013-03-24 12:53:00
7:53 AM,12.9,6.1,74,30.46,10.0,Calm,Calm,-,N/A,,Clear,0,2013-03-24 13:53:00
8:53 AM,18.0,10.0,71,30.46,10.0,Calm,Calm,-,N/A,,Clear,0,2013-03-24 14:53:00
9:53 AM,21.0,12.0,68,30.46,10.0,SSW,5.8,-,N/A,,Clear,210,2013-03-24 15:53:00
10:53 AM,25.0,12.0,58,30.46,10.0,South,3.5,-,N/A,,Clear,170,2013-03-24 16:53:00
11:53 AM,28.9,9.0,43,30.45,10.0,South,3.5,-,N/A,,Clear,180,2013-03-24 17:53:00
12:53 PM,32.0,10.0,40,30.43,10.0,Calm,Calm,-,N/A,,Clear,0,2013-03-24 18:53:00
1:53 PM,34.0,10.0,37,30.41,10.0,Calm,Calm,-,N/A,,Clear,0,2013-03-24 19:53:00
2:53 PM,35.1,10.0,35,30.39,10.0,NNE,3.5,-,N/A,,Clear,30,2013-03-24 20:53:00
3:53 PM,37.0,10.0,33,30.38,10.0,East,9.2,-,N/A,,Partly Cloudy,100,2013-03-24 21:53:00
4:53 PM,37.0,6.1,28,30.38,10.0,SSW,4.6,-,N/A,,Clear,210,2013-03-24 22:53:00
5:53 PM,35.6,8.6,33,30.19,10.0,Variable,5.8,-,N/A,,Clear,0,2013-03-24 23:53:00
6:53 PM,35.1,6.1,30,30.35,10.0,SE,3.5,-,N/A,,Clear,130,2013-03-25 00:53:00
7:53 PM,30.0,9.0,41,30.35,10.0,SE,6.9,-,N/A,,Clear,130,2013-03-25 01:53:00
8:53 PM,26.1,10.0,51,30.35,10.0,ESE,5.8,-,N/A,,Clear,120,2013-03-25 02:53:00
9:53 PM,26.1,10.0,51,30.32,10.0,ESE,6.9,-,N/A,,Clear,110,2013-03-25 03:53:00
10:53 PM,21.9,9.0,58,30.32,10.0,East,5.8,-,N/A,,Clear,100,2013-03-25 04:53:00
11:53 PM,21.9,9.0,58,30.30,10.0,ESE,5.8,-,N/A,,Clear,120,2013-03-25 05:53:00